Location: La B�doule
(43.2468°N, 5.5934°E)
Time: 20:24:26
(UTC+00:00)

NPP - Pass Details

Date: 07 June 2020
Orbit: 826 x 827 km, 98.7° (Epoch: 04 July)

Event Time Altitude Azimuth Distance (km) Brightness Sun altitude
Rises 01:12:22 0° 16° (NNE) 3,376 8.4 -20.4°
Reaches altitude 10° 01:14:45 10° 19° (NNE) 2,438 7.3 -20.2°
Maximum altitude 01:20:07 67° 102° (ESE) 895 3.8 -19.8°
Enters shadow 01:22:36 32° 175° (S) 1,375 4.3 -19.6°
